sat.trackr.live / text

‹ back to catalog

JILIN-1 GAOFEN 03D48

NORAD 54695 · 2022-167P

PAYLOAD ACTIVE UNKNOWN

§ Identity

Operator
Country
PRC
Launch date
2022-12-09
Launch site
SEAL
Launch vehicle
Mass (kg)
RCS (m²)

External: N2YO · Heavens-Above · Gunter

§ Orbital elements

Epoch: 2026-05-25T04:29:35.979072Z

Period
93.83 min
Inclination
97.6865°
Eccentricity
0.0006431
Mean motion
15.34652697 rev/d
Perigee alt
457.6 km
Apogee alt
466.4 km
Semi-major
6,840.1 km
B*
3.1707e-4
RAAN
313.7344°
Arg perigee
187.2636°
Mean anomaly
172.8514°
Rev number
19,186

§ Raw data

JILIN-1 GAOFEN 03D481 54695U 22167P   26145.18722198  .00010572  00000+0  31707-3 0  99982 54695  97.6865 313.7344 0006431 187.2636 172.8514 15.34652697191865

JSON: /api/v1/satellites/54695 · /tle

For live sub-satellite position, see the globe view (requires WebGL).

§ Visibility from observer

Set your observer location to see the next 7 days of passes ≥ 10°. The values pass through the URL so the page stays shareable.

No JS? Fill the form by hand. The geolocation button needs JavaScript.

§ Radio — SatNOGS DB

ModeDescriptionDownlinkUplink
FM Jillin Mysterious Pip 1.616 GHz

1 transmitter · refreshed weekly from db.satnogs.org